Hourly Data Report for May 23, 2019

MIRAMICHI RCS
NEW BRUNSWICK
Current Station Operator: ECCC - MSC

47°00'34.000" N
65°27'54.000" W
33.00 m
8100989
71744
ACQ

Download Data

Hourly Data (May 2019)
Hourly Data Report for May 23, 2019
TIME
LST
Temp Definition
°C
Dew Point Definition
°C
Rel Hum Definition
%
Precip. Amount Definition
mm

Wind Dir Definition
10's deg

Wind Spd Definition
km/h
Visibility Definition
km
Stn Press Definition
kPa
Hmdx Definition


Wind Chill Definition


Weather Definition


00:00 5.2 4.4 95 0.0 27 7   101.72     LegendNANA
01:00 4.4 3.9 96 0.0 27 6   101.70     LegendNANA
02:00 3.5 2.9 96 0.0 22 4   101.69     LegendNANA
03:00 3.9 3.2 95 0.0 27 4   101.70     LegendNANA
04:00 2.4 1.8 95 0.0 27 6   101.67     LegendNANA
05:00 3.8 3.2 95 0.0 28 7   101.72     LegendNANA
06:00 8.4 4.8 78 0.0 36 3   101.78     LegendNANA
07:00 9.0 4.9 75 0.0 36 5   101.75     LegendNANA
08:00 10.2 4.9 69 0.0 1 4   101.73     LegendNANA
09:00 12.0 3.6 57 0.0 35 6   101.72     LegendNANA
10:00 12.9 3.0 51 0.0 2 5   101.66     LegendNANA
11:00 14.2 3.7 49 0.0 36 10   101.57     LegendNANA
12:00 14.9 4.0 48 0.0 30 7   101.53     LegendNANA
13:00 15.4 3.8 46 0.0 29 4   101.47     LegendNANA
14:00 17.3 5.1 45 0.0 34 6   101.37     LegendNANA
15:00 16.6 4.3 44 0.0 21 3   101.28     LegendNANA
16:00 16.7 4.3 44 0.0 11 3   101.24     LegendNANA
17:00 17.1 5.0 45 0.0 10 17   101.16     LegendNANA
18:00 16.2 4.8 47 0.0 11 19   101.10     LegendNANA
19:00 14.0 3.9 51 0.0 12 17   101.08     LegendNANA
20:00 11.2 3.1 57 0.0 10 14   101.03     LegendNANA
21:00 9.5 2.4 61 0.0 9 10   101.03     LegendNANA
22:00 8.8 1.9 62 0.0 6 6   101.02     LegendNANA
23:00 8.0 2.5 68 0.0 7 10   100.96     LegendNANA

Notes on Data Quality.

Legend

  • E = Estimated
  • M = Missing
  • NA = Not Available*
  • [empty] = Indicates an unobserved value
Date modified: